Regional Weather Roundup
Issued by NWS

Home | Current Version | Previous Version | Graphics & Text | Print | Product List | Glossary Off
Versions: 1 2 3 4 5 6 7 8 9 10 11 12 13 14 15 16 17 18 19 20 21 22 23 24 25 26 27 28 29 30 31 32 33 34 35 36 37 38 39 40 41 42 43 44 45 46 47 48 49 50

000
ASUS43 KMPX 280001
RWRMN
WEATHER ROUNDUP FOR MINNESOTA
NATIONAL WEATHER SERVICE TWIN CITIES/CHANHASSEN MN
700 PM CDT THU APR 27 2017


NOTE: "FAIR" INDICATES FEW OR NO CLOUDS BELOW 12,000 FEET WITH NO
SIGNIFICANT WEATHER AND/OR OBSTRUCTIONS TO VISIBILITY. N/A MEANS
CURRENT SKY AND/OR WEATHER CONDITIONS ARE NOT AVAILABLE.

MNZ060>063-068>070-280100-
   Twin Cities Metro

CITY           SKY/WX    TMP DP  RH WIND       PRES   REMARKS
TWIN CITIES    CLOUDY    34  24  67 NW13      29.69R WCI  25
6HR MIN TEMP:  34; 6HR MAX TEMP:  36;

ST PAUL        CLOUDY    34  25  69 NW8       29.70R WCI  27
CRYSTAL        CLOUDY    33  22  63 NW9       29.68R WCI  25
BLAINE         CLOUDY    34  25  69 NW14      29.68R WCI  24
LAKEVILLE      CLOUDY    34  27  75 NW8       29.68R WCI  27
EDEN PRAIRIE   CLOUDY    35  25  66 W8G20     29.68R WCI  29
6HR MIN TEMP:  34; 6HR MAX TEMP:  36;

SOUTH ST PAUL  CLOUDY    34  24  67 NW9       29.69R WCI  27
LAKE ELMO      CLOUDY    32  27  80 W7        29.69R WCI  26
$$
MNZ001>005-007-008-013>017-022>024-027-028-280100-
   Northwest Minnesota

CITY           SKY/WX    TMP DP  RH WIND       PRES   REMARKS
BEMIDJI        CLOUDY    29  21  72 NW10      29.63R WCI  20
HALLOCK        CLOUDY    41  30  65 N17G24    29.69R
ROSEAU         LGT SNOW  30  27  86 N7        29.66S WCI  23
WARROAD        FLURRIES  30  25  80 N9        29.66R WCI  22
THIEF RVR FALL CLOUDY    32  25  75 N9        29.69R WCI  24
CROOKSTON      CLOUDY    36  27  69 NE6       29.71R
FOSSTON        CLOUDY    28  23  80 NW10      29.68R WCI  19
DETROIT LAKES  CLOUDY    32  28  86 N9        29.68R WCI  24
MOORHEAD       CLOUDY    37  28  70 N7        29.70S
PARK RAPIDS    CLOUDY    31  20  63 NW15      29.63S WCI  20
MAHNOMEN       CLOUDY    31  25  80 CALM      29.68R
$$
MNZ006-009>011-018-025>026-280100-
   North Central Minnesota

CITY           SKY/WX    TMP DP  RH WIND       PRES   REMARKS
BAUDETTE       CLOUDY    28  21  75 N13       29.62R WCI  17
FLAG ISLAND    LGT SNOW  28  25  86 N20       29.64R WCI  15
INTL FALLS     CLOUDY    28  18  66 N10       29.58R WCI  19
6HR MIN TEMP:  26; 6HR MAX TEMP:  29; 6HR PCP: TRACE;

WASKISH        CLOUDY    28  21  74 N7G16     29.63R WCI  21
BIG FORK       CLOUDY    28  19  69 W3        29.59S
LONGVILLE      CLOUDY    28  21  74 W5        29.62R WCI  23
GRAND RAPIDS   CLOUDY    27  20  75 NW10      29.62R WCI  17
CRANE LAKE     CLOUDY    27  21  80 NW6       29.58R WCI  20
ORR            CLOUDY    27  18  69 NW8       29.54R WCI  18
COOK           CLOUDY    27  19  74 NW9       29.57R WCI  17
WALKER         CLOUDY    28  22  76 NW12      29.62R WCI  18
$$
MNZ012-019>021-037-280100-
   Northeast Minnesota

CITY           SKY/WX    TMP DP  RH WIND       PRES   REMARKS
DULUTH         CLOUDY    29  21  72 NW12      29.57R WCI  19
6HR MIN TEMP:  26; 6HR MAX TEMP:  30;

ELY            CLOUDY    27  18  69 W8        29.53R WCI  18
HIBBING        CLOUDY    26  18  71 W10       29.57R WCI  16
EVELETH        CLOUDY    28  18  68 NW8G16    29.58R WCI  19
DULUTH HARBOR  CLOUDY    34  25  69 W13       29.62R WCI  25
TWO HARBORS    CLOUDY    32  23  69 W9        29.55R WCI  24
SILVER BAY     CLOUDY    28  21  74 W5        29.53R WCI  23
GRAND MARAIS     N/A     29  24  82 VRB5      29.53R WCI  24
G MARAIS ARPRT CLOUDY    21  16  79 CALM      29.46R
$$
MNZ029>031-032-039>041-046>048-054>057-064-280100-
   West Central Minnesota

CITY           SKY/WX    TMP DP  RH WIND       PRES   REMARKS
FERGUS FALLS   CLOUDY    36  27  69 N12       29.70R
WHEATON        CLOUDY    37  27  65 NW7       29.74R
MORRIS         CLOUDY    36  27  69 N10       29.71R
ALEXANDRIA     CLOUDY    32  24  72 NW15      29.69R WCI  22
ELBOW LAKE     CLOUDY    35  26  70 NW10      29.71R WCI  27
WADENA         CLOUDY    30  25  80 NW10      29.66R WCI  21
GLENWOOD       CLOUDY    32  27  80 NW17      29.70R WCI  21
APPLETON       CLOUDY    37  27  65 NW12      29.73R
BENSON         CLOUDY    37  25  60 N20       29.73R
ORTONVILLE     CLOUDY    37  28  70 NW9       29.73R
MADISON        CLOUDY    41  30  65 N13       29.73R
WILLMAR        CLOUDY    34  28  80 NW16      29.73R WCI  23
$$
MNZ033>034-036-042>043-049>051-058-059-280100-
   Central Minnesota

CITY           SKY/WX    TMP DP  RH WIND       PRES   REMARKS
ST CLOUD       CLOUDY    32  24  72 NW14      29.67R WCI  22
6HR MIN TEMP:  30; 6HR MAX TEMP:  32;

SAUK CENTRE    CLOUDY    32  24  73 NW14      29.69R WCI  22
PAYNESVILLE    CLOUDY    33  26  75 NW12      29.69R WCI  24
AITKIN         CLOUDY    32  21  64 NW6       29.62R WCI  26
PINE RIVER     CLOUDY    30  25  80 NW7       29.67R WCI  23
BRAINERD       CLOUDY    30  23  75 NW9       29.64R WCI  22
STAPLES        CLOUDY    30  25  80 NW9       29.66R WCI  22
LONG PRAIRIE   CLOUDY    32  25  74 W16       29.68R WCI  21
LITTLE FALLS   CLOUDY    32  23  69 W8        29.67R WCI  25
BUFFALO        CLOUDY    33  24  69 W9        29.69R WCI  25
MAPLE LAKE     CLOUDY    34  27  75 NW12      29.69R WCI  25
HUTCHINSON     CLOUDY    35  28  75 W13G20    29.70R WCI  26
$$
MNZ037-044-045-052-053-280100-
   East Central Minnesota

CITY           SKY/WX    TMP DP  RH WIND       PRES   REMARKS
PRINCETON      CLOUDY    34  25  69 W12       29.67R WCI  25
MORA           CLOUDY    32  23  69 W9        29.66R WCI  24
CAMBRIDGE      CLOUDY    34  23  64 W6G17     29.65R WCI  29
RUSH CITY      CLOUDY    31  24  72 W8        29.66R WCI  24
MOOSE LAKE     CLOUDY    32  23  69 W8        29.60R WCI  25
HINCKLEY       CLOUDY    32  27  80 W6        29.64R WCI  26
CLOQUET        CLOUDY    28  19  69 W6        29.59R WCI  22
MCGREGOR       CLOUDY    30  23  74 NW8       29.62R WCI  23
$$
MNZ071>073-080-081-089-090-097-098-280100-
   Southwest Minnesota

CITY           SKY/WX    TMP DP  RH WIND       PRES   REMARKS
MONTEVIDEO     CLOUDY    37  28  70 N12G18    29.73R
GRANITE FALLS  CLOUDY    38  30  71 NW12      29.74R
CANBY          SUNNY     42  29  59 NW13      29.74R
MARSHALL       MOSUNNY   39  28  64 N15       29.73R
REDWOOD FALLS  CLOUDY    36  25  64 N12G21    29.72R
OLIVIA         CLOUDY    34  28  80 NW14G26   29.71R WCI  24
PIPESTONE      SUNNY     46  27  46 NE6G20    29.69R
WINDOM         SUNNY     37  28  70 NW15G21   29.72R
WORTHINGTON    CLOUDY    43  32  65 NW8       29.72R
JACKSON        CLOUDY    37  30  75 NW12      29.73R
TRACY          MOSUNNY   39  31  72 N12       29.73R
SLAYTON        MOSUNNY   41  31  69 N13       29.71R
$$
MNZ065>067-074>077-082>085-091>093-280100-
   South Central Minnesota

CITY           SKY/WX    TMP DP  RH WIND       PRES   REMARKS
MANKATO        CLOUDY    34  26  72 NW13      29.72R WCI  25
NEW ULM        CLOUDY    34  27  75 NW13      29.72R WCI  25
ST JAMES       CLOUDY    36  28  75 NW14      29.74R
FAIRMONT       CLOUDY    37  28  70 NW12      29.74R
GLENCOE        CLOUDY    35  30  80 W9        29.69R WCI  28
FARIBAULT      CLOUDY    34  27  75 W9G20     29.70R WCI  26
OWATONNA       CLOUDY    34  27  75 W14       29.70R WCI  24
WASECA         CLOUDY    34  28  80 W17       29.72R WCI  23
ALBERT LEA     CLOUDY    34  27  75 W9G16     29.71R WCI  26
$$
MNZ078>079-086>088-094>096-280100-
   Southeast Minnesota

CITY           SKY/WX    TMP DP  RH WIND       PRES   REMARKS
ROCHESTER      CLOUDY    34  28  79 W16       29.69R WCI  24
6HR MIN TEMP:  34; 6HR MAX TEMP:  37; 6HR PCP: TRACE;

RED WING       CLOUDY    36  25  64 NW6       29.67R
STANTON        CLOUDY    35  29  79 W12       29.68R WCI  27
DODGE CENTER   CLOUDY    34  27  75 W15G21    29.69R WCI  24
WINONA         CLOUDY    36  32  87 NW12      29.69R
AUSTIN         CLOUDY    34  27  75 W14       29.71R WCI  24
PRESTON        CLOUDY    34  28  77 W17       29.70R WCI  23
$$
ABBREVIATIONS USED IN REMARKS
   TC - TEMPERATURES IN CELSIUS
  WCI - WIND CHILL INDEX
   HX - HEAT INDEX
  VSB - VISIBILITY
$$




USA.gov is the U.S. government's official web portal to all federal, state and local government web resources and services.